When you browse on this site, cookies collect data to enhance your experience and personalize the content and advertising you see.
Visit our Privacy Policy to learn more. By continuing to use the site, you agree to this use of cookies and data.
  • In Netherlands
  • List of Countries
  • For 7 days
  • Water Temperature
  • Weather Map
  • Weather Widgets
  • user-avatar
    Login

    Hourly Weather Tonton

    Today, 19 February, Wednesday

    Time Temperature Precipitation Wind Pressure Humidity
    00:00 +2°C° 0 mm 5 mps 762 mmHg 88%
    01:00 +2°C° 0 mm 5 mps 763 mmHg 87%
    02:00 +2°C° 0 mm 5 mps 763 mmHg 87%
    03:00 +2°C° 0 mm 5 mps 763 mmHg 86%
    04:00 +3°C° 0 mm 4 mps 764 mmHg 87%
    05:00 +3°C° 0 mm 4 mps 764 mmHg 87%
    06:00 +3°C° 0 mm 4 mps 764 mmHg 90%
    07:00 +3°C° 0.1 mm 4 mps 764 mmHg 90%
    08:00 +4°C° 0.1 mm 4 mps 764 mmHg 90%
    09:00 +5°C° 0.1 mm 5 mps 764 mmHg 90%
    10:00 +5°C° 0.5 mm 5 mps 764 mmHg 92%
    11:00 +5°C° 0.5 mm 6 mps 764 mmHg 93%
    12:00 +5°C° 0.5 mm 7 mps 763 mmHg 94%
    13:00 +6°C° 0.2 mm 7 mps 763 mmHg 91%
    14:00 +8°C° 0.2 mm 7 mps 762 mmHg 88%
    15:00 +8°C° 0.2 mm 6 mps 761 mmHg 85%
    16:00 +8°C° 0 mm 6 mps 761 mmHg 86%
    17:00 +8°C° 0 mm 6 mps 760 mmHg 88%
    18:00 +7°C° 0 mm 6 mps 760 mmHg 89%
    19:00 +7°C° 0 mm 6 mps 759 mmHg 89%
    20:00 +7°C° 0 mm 6 mps 759 mmHg 89%
    21:00 +6°C° 0 mm 7 mps 759 mmHg 89%
    22:00 +6°C° 0 mm 7 mps 758 mmHg 89%
    23:00 +8°C° 0 mm 7 mps 758 mmHg 90%

    Tomorrow, 20 February, Thursday

    Time Temperature Precipitation Wind Pressure Humidity
    00:00 +7°C° 0 mm 8 mps 757 mmHg 90%
    01:00 +7°C° 0 mm 8 mps 757 mmHg 89%
    02:00 +7°C° 0 mm 8 mps 756 mmHg 88%
    03:00 +7°C° 0 mm 8 mps 755 mmHg 87%
    04:00 +7°C° 0 mm 9 mps 755 mmHg 88%
    05:00 +7°C° 0 mm 9 mps 754 mmHg 88%
    06:00 +7°C° 0 mm 10 mps 754 mmHg 88%
    07:00 +8°C° 0.4 mm 10 mps 754 mmHg 90%
    08:00 +8°C° 0.4 mm 11 mps 753 mmHg 91%
    09:00 +8°C° 0.4 mm 11 mps 753 mmHg 92%
    10:00 +6°C° 1 mm 10 mps 754 mmHg 91%
    11:00 +5°C° 1 mm 9 mps 755 mmHg 89%
    12:00 +4°C° 1 mm 8 mps 756 mmHg 88%
    13:00 +3°C° 0.1 mm 9 mps 757 mmHg 81%
    14:00 +3°C° 0.1 mm 10 mps 759 mmHg 74%
    15:00 +3°C° 0.1 mm 11 mps 760 mmHg 67%
    16:00 +2°C° 0 mm 9 mps 761 mmHg 68%
    17:00 +2°C° 0 mm 8 mps 762 mmHg 69%
    18:00 +2°C° 0 mm 6 mps 763 mmHg 70%
    19:00 +1°C° 0 mm 6 mps 764 mmHg 72%
    20:00 +1°C° 0 mm 6 mps 764 mmHg 74%
    21:00 +1°C° 0 mm 6 mps 765 mmHg 76%
    22:00 +1°C° 0 mm 5 mps 766 mmHg 78%
    23:00 +1°C° 0 mm 5 mps 766 mmHg 80%

    Day after tomorrow, 21 February, Friday

    Time Temperature Precipitation Wind Pressure Humidity
    00:00 +1°C° 0 mm 5 mps 767 mmHg 82%
    01:00 +2°C° 0 mm 5 mps 767 mmHg 82%
    02:00 +2°C° 0 mm 5 mps 767 mmHg 82%
    03:00 +2°C° 0 mm 6 mps 767 mmHg 82%
    04:00 +2°C° 0 mm 6 mps 767 mmHg 83%
    05:00 +2°C° 0 mm 6 mps 767 mmHg 83%
    06:00 +2°C° 0 mm 6 mps 767 mmHg 83%
    13:00 +8°C° 0 mm 9 mps 766 mmHg 75%
    14:00 +8°C° 0 mm 9 mps 766 mmHg 75%
    15:00 +8°C° 0 mm 9 mps 765 mmHg 75%
    16:00 +7°C° 0 mm 8 mps 765 mmHg 78%
    17:00 +6°C° 0 mm 8 mps 765 mmHg 82%
    18:00 +5°C° 0 mm 8 mps 765 mmHg 85%
    19:00 +5°C° 0 mm 8 mps 765 mmHg 86%
    20:00 +5°C° 0 mm 8 mps 764 mmHg 86%
    21:00 +5°C° 0 mm 8 mps 764 mmHg 86%
    22:00 +6°C° 0 mm 9 mps 764 mmHg 84%
    23:00 +6°C° 0 mm 9 mps 764 mmHg 82%

    22 February, Saturday

    Time Temperature Precipitation Wind Pressure Humidity
    00:00 +7°C° 0 mm 10 mps 764 mmHg 80%
    01:00 +7°C° 0 mm 10 mps 763 mmHg 81%
    02:00 +7°C° 0 mm 10 mps 762 mmHg 82%
    03:00 +8°C° 0 mm 10 mps 762 mmHg 83%
    04:00 +8°C° 0.1 mm 10 mps 762 mmHg 85%
    05:00 +8°C° 0.1 mm 10 mps 762 mmHg 87%
    06:00 +10°C° 0.1 mm 9 mps 762 mmHg 89%
    07:00 +10°C° 0.1 mm 9 mps 762 mmHg 89%
    08:00 +10°C° 0.1 mm 9 mps 763 mmHg 89%
    09:00 +10°C° 0.1 mm 9 mps 763 mmHg 88%
    10:00 +10°C° 0 mm 9 mps 764 mmHg 86%
    11:00 +10°C° 0 mm 9 mps 764 mmHg 84%
    12:00 +11°C° 0 mm 9 mps 764 mmHg 82%
    13:00 +10°C° 0 mm 9 mps 764 mmHg 79%
    14:00 +10°C° 0 mm 9 mps 764 mmHg 76%
    15:00 +10°C° 0 mm 9 mps 764 mmHg 74%
    16:00 +9°C° 0 mm 8 mps 764 mmHg 77%
    17:00 +8°C° 0 mm 7 mps 765 mmHg 80%
    18:00 +7°C° 0 mm 6 mps 765 mmHg 83%
    19:00 +7°C° 0 mm 6 mps 765 mmHg 85%
    20:00 +7°C° 0 mm 6 mps 766 mmHg 86%
    21:00 +7°C° 0 mm 6 mps 766 mmHg 88%
    22:00 +7°C° 0 mm 6 mps 766 mmHg 87%
    23:00 +7°C° 0 mm 6 mps 765 mmHg 86%

    23 February, Sunday

    Time Temperature Precipitation Wind Pressure Humidity
    00:00 +7°C° 0 mm 6 mps 765 mmHg 85%
    01:00 +7°C° 0.3 mm 5 mps 764 mmHg 87%
    02:00 +7°C° 0.3 mm 5 mps 763 mmHg 90%
    03:00 +7°C° 0.3 mm 4 mps 762 mmHg 92%
    04:00 +9°C° 0.5 mm 7 mps 761 mmHg 91%
    05:00 +9°C° 0.5 mm 10 mps 760 mmHg 91%
    06:00 +12°C° 0.5 mm 12 mps 759 mmHg 90%
    07:00 +10°C° 0.3 mm 12 mps 759 mmHg 90%
    08:00 +10°C° 0.3 mm 12 mps 759 mmHg 90%
    09:00 +10°C° 0.3 mm 12 mps 759 mmHg 90%
    10:00 +11°C° 0.2 mm 11 mps 760 mmHg 88%
    11:00 +9°C° 0.2 mm 11 mps 761 mmHg 85%
    12:00 +9°C° 0.2 mm 10 mps 761 mmHg 82%
    13:00 +8°C° 0.1 mm 10 mps 762 mmHg 80%
    14:00 +7°C° 0.1 mm 10 mps 763 mmHg 77%
    15:00 +6°C° 0.1 mm 10 mps 764 mmHg 75%
    16:00 +5°C° 0 mm 8 mps 765 mmHg 75%
    17:00 +4°C° 0 mm 7 mps 767 mmHg 75%
    18:00 +3°C° 0 mm 5 mps 768 mmHg 76%
    19:00 +3°C° 0 mm 4 mps 769 mmHg 77%
    20:00 +3°C° 0 mm 3 mps 770 mmHg 77%
    21:00 +3°C° 0 mm 2 mps 771 mmHg 78%
    22:00 +3°C° 0 mm 2 mps 771 mmHg 78%
    23:00 +3°C° 0 mm 1 mps 771 mmHg 78%

    24 February, Monday

    Time Temperature Precipitation Wind Pressure Humidity
    00:00 +3°C° 0 mm 1 mps 772 mmHg 78%
    01:00 +3°C° 0 mm 1 mps 771 mmHg 77%
    02:00 +2°C° 0 mm 2 mps 771 mmHg 76%
    03:00 +3°C° 0 mm 2 mps 771 mmHg 76%
    04:00 +2°C° 0 mm 3 mps 770 mmHg 74%
    05:00 +3°C° 0 mm 4 mps 769 mmHg 72%
    06:00 +3°C° 0 mm 5 mps 769 mmHg 70%
    07:00 +4°C° 0 mm 7 mps 768 mmHg 74%
    08:00 +5°C° 0 mm 8 mps 767 mmHg 78%
    09:00 +5°C° 0 mm 10 mps 766 mmHg 82%
    10:00 +7°C° 0 mm 10 mps 765 mmHg 85%
    11:00 +8°C° 0 mm 10 mps 764 mmHg 87%
    12:00 +9°C° 0 mm 10 mps 763 mmHg 90%
    13:00 +11°C° 0 mm 10 mps 762 mmHg 88%
    14:00 +11°C° 0 mm 11 mps 761 mmHg 86%
    15:00 +12°C° 0 mm 11 mps 760 mmHg 84%
    16:00 +11°C° 0 mm 11 mps 759 mmHg 83%
    17:00 +11°C° 0 mm 11 mps 759 mmHg 82%
    18:00 +9°C° 0 mm 11 mps 758 mmHg 81%
    19:00 +9°C° 0 mm 11 mps 758 mmHg 82%
    20:00 +9°C° 0 mm 10 mps 757 mmHg 84%
    21:00 +9°C° 0 mm 10 mps 757 mmHg 85%
    22:00 +10°C° 0.4 mm 9 mps 757 mmHg 88%
    23:00 +10°C° 0.4 mm 9 mps 756 mmHg 90%
    Show more